[[{"header":{"parameterUnit":"m.s-1","parameterCategory":1,"la1":30.2991,"la2":30.254,"lo1":-89.0895,"lo2":-89.0444,"dy":0.0017,"dx":0.0017,"nx":28,"ny":28,"refTime":"2024-03-21T03:00:00:Z","depth":0,"parameterNumber":2,"parameterNumberName":"U-component_of_WINDS"},"data":[0,0,0,0,0,0,0,0,0,0,0,0,0,0,0,0,0,0,0,0,0,0,0,0,0,0,0,0,0,0,0,0,0,0,0,0,0,0,0,0,0,0,0,0,0,0,0,0,0,0,0,0,0,0,0,0,0,0,0.6455,0.6456,0,0.6526,0.6527,0.6528,0.6567,0.6567,0.6568,0.6568,0.6639,0.6641,0.6643,0,0,0,0,0,0,0,0,0,0,0,0,0,0.6352,0.6354,0.6455,0.6456,0.6456,0.6526,0.6527,0.6528,0.6567,0.6567,0.6568,0.6568,0.6638,0.6641,0.6643,0,0,0,0,0,0,0,0,0,0,0,0,0,0.6407,0.6354,0.6455,0.6485,0.6488,0.6526,0.6527,0.6528,0.6567,0.6567,0.6568,0.6568,0.6638,0.664,0.6643,0.6656,0,0,0.6651,0.6652,0,0,0,0,0,0,0,0,0.6404,0.6411,0.6479,0.6483,0.6486,0.6538,0.6517,0.6571,0.6567,0.6537,0.6568,0.6568,0.6605,0.6611,0.6623,0.6659,0.6662,0.6651,0.6653,0.6654,0.6655,0,0,0,0,0,0,0,0.64,0.6408,0.6483,0.648,0.6485,0.6494,0.6502,0.6527,0.6569,0.654,0.6543,0.6551,0.6607,0.6621,0.6625,0.6663,0.6651,0.6654,0.6655,0.6656,0.6714,0.6713,0,0,0,0,0,0,0.6392,0.6404,0.6481,0.6485,0.6445,0.6496,0.6505,0.6521,0.6569,0.6576,0.655,0.6552,0.6616,0.6622,0.6628,0.6646,0.6654,0.6657,0.6658,0.6714,0.6714,0.6713,0,0,0,0,0,0,0.6389,0.6398,0.6478,0.6446,0.6457,0.6497,0.6515,0.6522,0.6536,0.6577,0.6585,0.6557,0.6616,0.6624,0.6649,0.6649,0.6658,0.666,0.6714,0.6714,0.6713,0.6683,0,0,0,0,0,0,0.6386,0.6397,0.6402,0.6445,0.6458,0.6497,0.6516,0.6524,0.6541,0.6544,0.6585,0.6592,0.6617,0.6645,0.6651,0.6653,0.6662,0.6714,0.6714,0.6714,0.6684,0.6682,0.668,0,0,0,0,0,0.6382,0.639,0.6402,0.6411,0.6466,0.6497,0.6505,0.6534,0.6541,0.6546,0.6573,0.6591,0.6648,0.6647,0.6655,0.6657,0.6714,0.6714,0.6714,0.6685,0.6682,0.668,0,0,0,0,0,0,0.6345,0.6397,0.641,0.6433,0.6461,0.6504,0.6512,0.653,0.6556,0.6557,0.6592,0.6601,0.6622,0.6643,0.664,0.6673,0.6683,0.6684,0.6659,0.6656,0.6654,0.6649,0.6665,0,0,0,0,0,0.634,0.6362,0.6405,0.6421,0.6434,0.6471,0.6485,0.6506,0.6536,0.6547,0.6576,0.6603,0.6628,0.6643,0.6668,0.6687,0.6697,0.6693,0.6691,0.6689,0.669,0.6702,0.67,0.6713,0.6713,0.6713,0,0,0.6329,0.636,0.6371,0.6414,0.6438,0.6459,0.648,0.6502,0.6518,0.655,0.6575,0.6597,0.6631,0.6653,0.6664,0.667,0.6689,0.6689,0.6687,0.6689,0.6701,0.67,0.6699,0.6713,0.6713,0.6713,0,0,0.6319,0.6345,0.6361,0.6385,0.6421,0.6445,0.6449,0.649,0.6506,0.6532,0.6557,0.6576,0.6618,0.6641,0.6658,0.6658,0.6675,0.6665,0.6654,0.6665,0.6664,0.6663,0.6663,0.6663,0.6666,0.6666,0.6666,0,0.6301,0.6334,0.6367,0.6387,0.6405,0.6437,0.6453,0.6474,0.6516,0.6528,0.6535,0.6588,0.6613,0.6641,0.6641,0.6654,0.6659,0.666,0.6662,0.6661,0.6661,0.6661,0.6661,0.6664,0.6664,0.6665,0.6665,0,0.631,0.6333,0.6341,0.6382,0.6401,0.6419,0.6454,0.647,0.6488,0.6512,0.6538,0.6569,0.6601,0.6609,0.6627,0.664,0.6643,0.6655,0.6666,0.6658,0.6659,0.6659,0.6662,0.6663,0.6663,0.6663,0,0,0.6278,0.6337,0.6339,0.6358,0.6401,0.6419,0.6439,0.6471,0.6484,0.6512,0.6529,0.6564,0.6576,0.6595,0.6617,0.6626,0.6625,0.6638,0.6639,0.6634,0.664,0.663,0.663,0.6637,0.6637,0.6637,0.6638,0,0.6274,0.6312,0.6342,0.6368,0.6389,0.642,0.6437,0.6465,0.6488,0.6509,0.6535,0.6559,0.6573,0.6585,0.6596,0.6622,0.6626,0.6623,0.6653,0.6654,0.6643,0.6631,0.662,0.6619,0.6638,0.6638,0.6638,0,0.6275,0.6302,0.6331,0.6372,0.6382,0.6397,0.6429,0.6449,0.6482,0.6498,0.652,0.6542,0.6564,0.6574,0.6605,0.6602,0.6616,0.6631,0.6632,0.6635,0.6645,0.6633,0.6619,0.6619,0.6639,0.6639,0.6639,0,0.6248,0.6293,0.6316,0.6331,0.6379,0.6389,0.641,0.6443,0.646,0.6488,0.65,0.6529,0.6545,0.6568,0.6598,0.6602,0.6626,0.6638,0.6639,0.6639,0.6642,0.6641,0.663,0.6652,0.6652,0.6652,0.6652,0,0.624,0.6256,0.6304,0.6318,0.6337,0.6372,0.639,0.6413,0.6442,0.6461,0.6489,0.6506,0.6545,0.6567,0.659,0.6612,0.6619,0.6633,0.6639,0.663,0.6628,0.6639,0.664,0.6652,0.6652,0.6652,0.6652,0,0.6213,0.6246,0.6273,0.6318,0.6329,0.6341,0.6379,0.6393,0.6418,0.6442,0.6449,0.6488,0.6516,0.6548,0.6585,0.6601,0.6621,0.663,0.661,0.6614,0.6613,0.6613,0.6608,0.6609,0.6631,0.663,0.663,0,0.6206,0.6219,0.6265,0.628,0.63,0.6324,0.6342,0.6377,0.6394,0.6433,0.6443,0.6473,0.6498,0.654,0.6571,0.66,0.661,0.6607,0.6615,0.6606,0.661,0.6608,0.661,0.6604,0.6604,0.6603,0.6603,0,0.6189,0.6205,0.623,0.6262,0.6283,0.6309,0.6336,0.6347,0.6387,0.6406,0.6434,0.6454,0.6493,0.6522,0.6555,0.6576,0.6596,0.66,0.6602,0.6593,0.6581,0.6587,0.6604,0.66,0.66,0.6601,0.6601,0.6601,0.6171,0.6185,0.6219,0.6247,0.6271,0.6296,0.6313,0.634,0.6365,0.6399,0.6418,0.6446,0.6479,0.6526,0.6547,0.6569,0.6576,0.6579,0.6579,0.6579,0.6577,0.6578,0.6575,0.6576,0.6576,0.6576,0.6576,0,0.6155,0.618,0.6205,0.6243,0.6264,0.6282,0.6314,0.6331,0.6355,0.6384,0.6409,0.6442,0.6471,0.6505,0.6536,0.6547,0.6557,0.6554,0.6553,0.6558,0.6569,0.6564,0.6545,0.6545,0.6545,0.6545,0.6545,0.6545,0.615,0.6173,0.6193,0.623,0.6254,0.6282,0.6298,0.6322,0.6345,0.6381,0.6405,0.6428,0.6459,0.6493,0.652,0.6529,0.6539,0.6533,0.6545,0.6554,0.6557,0.6559,0.6555,0.6535,0.6535,0.6532,0.6532,0.6532]},{"header":{"parameterUnit":"m.s-1","parameterCategory":1,"la1":30.2991,"la2":30.254,"lo1":-89.0895,"lo2":-89.0444,"dy":0.0017,"dx":0.0017,"nx":28,"ny":28,"refTime":"2024-03-21T03:00:00:Z","depth":0,"parameterNumber":3,"parameterNumberName":"V-component_of_WINDS"},"data":[0,0,0,0,0,0,0,0,0,0,0,0,0,0,0,0,0,0,0,0,0,0,0,0,0,0,0,0,0,0,0,0,0,0,0,0,0,0,0,0,0,0,0,0,0,0,0,0,0,0,0,0,0,0,0,0,0,0,-2.3813,-2.3814,0,-2.3951,-2.3953,-2.3954,-2.3962,-2.396,-2.3959,-2.3957,-2.4098,-2.4104,-2.4109,0,0,0,0,0,0,0,0,0,0,0,0,0,-2.3556,-2.3561,-2.3813,-2.3814,-2.3816,-2.3951,-2.3953,-2.3955,-2.3962,-2.396,-2.3958,-2.3957,-2.4097,-2.4103,-2.4109,0,0,0,0,0,0,0,0,0,0,0,0,0,-2.3678,-2.3562,-2.3812,-2.3836,-2.384,-2.395,-2.3953,-2.3955,-2.3963,-2.396,-2.3958,-2.3956,-2.4095,-2.4102,-2.411,-2.4206,0,0,-2.4134,-2.4138,0,0,0,0,0,0,0,0,-2.3671,-2.3688,-2.3831,-2.3835,-2.3839,-2.3937,-2.3914,-2.4039,-2.3963,-2.3916,-2.3957,-2.3955,-2.4047,-2.4058,-2.4089,-2.4213,-2.4219,-2.4135,-2.414,-2.4143,-2.4145,0,0,0,0,0,0,0,-2.3663,-2.3682,-2.3867,-2.3833,-2.3838,-2.384,-2.3855,-2.3938,-2.3993,-2.392,-2.3921,-2.3937,-2.4048,-2.4082,-2.4093,-2.4221,-2.4135,-2.4142,-2.4146,-2.4149,-2.4432,-2.4435,0,0,0,0,0,0,-2.365,-2.3675,-2.3863,-2.3872,-2.3748,-2.3847,-2.3863,-2.3908,-2.3992,-2.4003,-2.3939,-2.3937,-2.407,-2.4084,-2.4098,-2.4217,-2.4143,-2.415,-2.4155,-2.4429,-2.4433,-2.4436,0,0,0,0,0,0,-2.3644,-2.3666,-2.3857,-2.3774,-2.3798,-2.3854,-2.3904,-2.3912,-2.3945,-2.4007,-2.4016,-2.3963,-2.4068,-2.4087,-2.418,-2.4222,-2.4154,-2.4161,-2.4426,-2.4431,-2.4434,-2.4456,0,0,0,0,0,0,-2.3637,-2.3664,-2.3701,-2.3774,-2.3802,-2.3937,-2.3906,-2.3916,-2.3959,-2.3958,-2.4032,-2.4042,-2.4068,-2.4168,-2.4188,-2.4232,-2.4167,-2.4423,-2.4428,-2.4433,-2.4452,-2.4461,-2.4468,0,0,0,0,0,-2.3628,-2.3701,-2.3703,-2.3726,-2.385,-2.3939,-2.3955,-2.3984,-2.3962,-2.4,-2.404,-2.4039,-2.4214,-2.4177,-2.4199,-2.4247,-2.442,-2.4427,-2.4433,-2.4448,-2.4459,-2.4468,0,0,0,0,0,0,-2.3631,-2.3711,-2.3714,-2.3814,-2.387,-2.394,-2.3989,-2.3994,-2.4057,-2.4053,-2.4086,-2.4103,-2.4195,-2.423,-2.4188,-2.4345,-2.4315,-2.4326,-2.4319,-2.433,-2.4338,-2.4328,-2.4174,0,0,0,0,0,-2.3644,-2.371,-2.3776,-2.3858,-2.3886,-2.3933,-2.3973,-2.399,-2.4049,-2.4073,-2.4119,-2.4177,-2.4245,-2.4289,-2.4355,-2.4457,-2.4474,-2.4501,-2.4509,-2.4515,-2.4524,-2.4583,-2.4596,-2.4457,-2.4457,-2.4456,0,0,-2.367,-2.3722,-2.3762,-2.386,-2.3905,-2.3974,-2.3952,-2.4025,-2.4076,-2.4084,-2.4175,-2.4211,-2.4278,-2.4376,-2.4422,-2.4408,-2.4567,-2.4523,-2.4528,-2.4534,-2.459,-2.4604,-2.4615,-2.4461,-2.446,-2.4459,0,0,-2.3753,-2.3799,-2.3873,-2.3919,-2.3988,-2.4019,-2.4037,-2.4107,-2.4132,-2.4224,-2.4232,-2.4293,-2.4409,-2.4457,-2.4496,-2.4599,-2.4602,-2.462,-2.4662,-2.4719,-2.473,-2.474,-2.4778,-2.4791,-2.4629,-2.4629,-2.4629,0,-2.3777,-2.388,-2.391,-2.3983,-2.4027,-2.4037,-2.4113,-2.4156,-2.4243,-2.4274,-2.4257,-2.4404,-2.445,-2.456,-2.4586,-2.4617,-2.4639,-2.4612,-2.4726,-2.4736,-2.4746,-2.4782,-2.4797,-2.4631,-2.463,-2.463,-2.463,0,-2.3907,-2.3979,-2.403,-2.4115,-2.4164,-2.4238,-2.4279,-2.4325,-2.4339,-2.4372,-2.4466,-2.4521,-2.4599,-2.4626,-2.464,-2.474,-2.4729,-2.4719,-2.4689,-2.476,-2.4795,-2.481,-2.4633,-2.4633,-2.4632,-2.4632,0,0,-2.3996,-2.4097,-2.4116,-2.4155,-2.4233,-2.4289,-2.4364,-2.4441,-2.4481,-2.4541,-2.4606,-2.4704,-2.4696,-2.4741,-2.476,-2.4809,-2.4889,-2.4793,-2.4795,-2.481,-2.5004,-2.5012,-2.5028,-2.4891,-2.4894,-2.4896,-2.4999,0,-2.4089,-2.4223,-2.4252,-2.4368,-2.4435,-2.4447,-2.4512,-2.4567,-2.46,-2.4662,-2.4699,-2.4769,-2.4752,-2.4779,-2.4828,-2.4869,-2.4929,-2.4862,-2.4952,-2.4955,-2.4936,-2.5046,-2.5055,-2.515,-2.5013,-2.5015,-2.5017,0,-2.4215,-2.4279,-2.4402,-2.4473,-2.4502,-2.456,-2.4634,-2.4693,-2.4756,-2.4777,-2.4828,-2.4842,-2.4921,-2.4887,-2.4997,-2.4951,-2.499,-2.5015,-2.502,-2.503,-2.4991,-2.5061,-2.518,-2.5195,-2.5039,-2.5037,-2.5035,0,-2.4269,-2.4386,-2.4475,-2.4508,-2.4593,-2.4634,-2.4671,-2.4732,-2.4777,-2.4841,-2.4871,-2.4944,-2.4984,-2.504,-2.5074,-2.5045,-2.5182,-2.515,-2.5202,-2.5201,-2.5231,-2.5229,-2.536,-2.5254,-2.5254,-2.5253,-2.5253,0,-2.4371,-2.4445,-2.4501,-2.4556,-2.464,-2.4673,-2.4756,-2.4793,-2.4848,-2.4911,-2.4925,-2.4983,-2.5024,-2.5088,-2.5115,-2.5203,-2.5221,-2.524,-2.5247,-2.524,-2.5238,-2.5266,-2.5261,-2.5257,-2.5256,-2.5256,-2.5255,0,-2.4446,-2.4486,-2.4584,-2.4656,-2.4676,-2.4736,-2.4798,-2.4852,-2.4885,-2.4965,-2.4985,-2.5038,-2.5115,-2.5154,-2.5249,-2.5267,-2.5367,-2.5369,-2.5346,-2.5349,-2.54,-2.5395,-2.5554,-2.5578,-2.5455,-2.5456,-2.5457,0,-2.4508,-2.4566,-2.4645,-2.4689,-2.4727,-2.4796,-2.4843,-2.4878,-2.4925,-2.5003,-2.5048,-2.5126,-2.519,-2.5312,-2.5359,-2.5433,-2.5437,-2.5488,-2.5448,-2.544,-2.544,-2.5437,-2.5443,-2.5495,-2.5496,-2.5497,-2.5498,0,-2.4615,-2.4633,-2.4699,-2.4773,-2.4828,-2.4888,-2.4947,-2.4981,-2.5026,-2.5079,-2.5158,-2.5208,-2.5307,-2.5384,-2.5461,-2.55,-2.5507,-2.551,-2.5527,-2.5521,-2.5506,-2.5516,-2.5367,-2.5507,-2.5506,-2.5505,-2.5505,-2.5504,-2.4687,-2.474,-2.4805,-2.4878,-2.4927,-2.4982,-2.5037,-2.5078,-2.5144,-2.5228,-2.5244,-2.5328,-2.5392,-2.5497,-2.5538,-2.5605,-2.5594,-2.5617,-2.5623,-2.5629,-2.5632,-2.5494,-2.5619,-2.5618,-2.5618,-2.5618,-2.5618,0,-2.4796,-2.4839,-2.4906,-2.4989,-2.5048,-2.5049,-2.5115,-2.5164,-2.5238,-2.5297,-2.536,-2.5452,-2.5528,-2.5581,-2.5658,-2.5702,-2.5707,-2.5721,-2.5719,-2.5728,-2.5636,-2.5615,-2.5715,-2.5715,-2.5715,-2.5715,-2.5715,-2.5715,-2.486,-2.495,-2.4975,-2.509,-2.5132,-2.5215,-2.5253,-2.5304,-2.5352,-2.5454,-2.5517,-2.5551,-2.5609,-2.569,-2.576,-2.5774,-2.5802,-2.5816,-2.583,-2.5744,-2.5734,-2.5724,-2.5705,-2.5822,-2.5822,-2.5917,-2.5918,-2.5918]}]]